Overview Statistics Trail Chart Weather Telemetry Raw packets
 

This is the latest recevied weather packets stored in our database for station/object CW79215. If no packets are shown the sender has not sent any weather packets the latest 10 day(s).

<< 31 32 33 34 35 36 37 >>
Time Temp. Humidity Pressure Rain* Wind** Luminosity Snow
1787967324 16.11° C 68% 1027.6 hPa - - - -
1787966424 16.11° C 67% 1027.7 hPa - - - -
1787965524 16.11° C 67% 1027.6 hPa - - - -
1787964624 16.67° C 66% 1027.4 hPa - - - -
1787963727 17.78° C 61% 1027.7 hPa - - - -
1787962824 17.22° C 65% 1027.7 hPa - - - -
1787961924 17.78° C 61% 1027.8 hPa - - - -
1787961024 17.78° C 61% 1027.8 hPa - - - -
1787960123 17.78° C 65% 1027.9 hPa - - - -
1787959223 17.78° C 63% 1027.7 hPa - - - -
1787958323 17.78° C 65% 1027.6 hPa - - - -
1787957423 17.78° C 64% 1027.5 hPa - - - -
1787956523 18.33° C 62% 1027.3 hPa - - - -
1787955623 17.78° C 61% 1027.2 hPa - - - -
1787954723 17.78° C 63% 1027.2 hPa - - - -
1787953823 18.89° C 59% 1027.1 hPa - - - -
1787952923 18.33° C 57% 1027.2 hPa - - - -
1787952023 18.89° C 59% 1026.9 hPa - - - -
1787951123 18.89° C 63% 1026.9 hPa - - - -
1787950222 18.89° C 55% 1026.5 hPa - - - -
1787949325 19.44° C 58% 1026.5 hPa - - - -
1787948425 18.89° C 59% 1026 hPa - - - -
1787947525 18.89° C 59% 1025.9 hPa - - - -
1787946629 19.44° C 58% 1025.6 hPa - - - -
1787945725 19.44° C 52% 1025.4 hPa - - - -

* Rain since midnight (hover to see other rain measurements)
** Current wind speed in m/s (hover to see current wind gust speed)